Regional Weather Roundup
Issued by NWS

Home | Current Version | Previous Version | Text Only | Print | Product List | Glossary On
Versions: 1 2 3 4 5 6 7 8 9 10 11 12 13 14 15 16 17 18 19 20 21 22 23 24 25 26 27 28 29 30 31 32 33 34 35 36 37 38 39 40 41 42 43 44 45 46 47 48 49 50
000
ASUS43 KLSX 201859
RWRMO

WEATHER SUMMARY FOR MISSOURI
NATIONAL WEATHER SERVICE SPRINGFIELD MO
200 PM CDT THU JUL 20 2017

NOTE: "FAIR" INDICATES FEW OR NO CLOUDS BELOW 12,000 FEET WITH NO
       SIGNIFICANT WEATHER AND/OR OBSTRUCTIONS TO VISIBILITY.
       CURRENT SKY AND/OR WEATHER CONDITIONS ARE NOT AVAILABLE FOR
       CHILLICOTHE AND FARMINGTON.

MOZ001>031-035>038-043-044-053-054-202000-
...NORTHERN AND WESTERN MISSOURI...

CITY           SKY/WX    TMP DP  RH WIND       PRES   REMARKS
KANSAS CTY INT MOSUNNY   95  77  55 SW13      30.01F HX 109
KANSAS C DTWN  SUNNY     96  75  50 SW17      30.00F HX 108
LEE`S SUMMIT   SUNNY     95  74  50 SW13G20   30.03F HX 105
ST JOSEPH      SUNNY     94  81  66 SW9       29.98F HX 115
CHILLICOTHE      N/A     94  79  61 SW7       30.00F HX 111
KIRKSVILLE     SUNNY     93  76  57 SW13      30.01F HX 105

$$
MOZ066>068-077>081-088>096-101>105-202000-
...SOUTHWEST MISSOURI...

CITY           SKY/WX    TMP DP  RH WIND       PRES   REMARKS
SPRINGFIELD    SUNNY     92  71  50 VRB7      30.09F HX  98
JOPLIN         SUNNY     96  74  48 SW10      30.07F HX 107
BRANSON        MOSUNNY   93  68  43 W6        30.13F HX  97

$$
MOZ032>034-039>042-045>050-055>058-069>072-202000-
...CENTRAL MISSOURI...

CITY           SKY/WX    TMP DP  RH WIND       PRES   REMARKS
COLUMBIA       SUNNY     96  75  50 SW12      30.04F HX 108
JEFFERSON CITY SUNNY     96  74  48 W16       30.02F HX 107
ROLLA          SUNNY     93  74  53 S8        30.07F HX 103
SEDALIA        SUNNY     95  78  58 SW8       30.05F HX 111
WARRENSBURG    SUNNY     95  72  46 S14       30.03F HX 103
OSAGE BEACH    SUNNY     96  72  45 W9G16     30.05F HX 104

$$
MOZ051-052-059>065-202000-
...EAST CENTRAL MISSOURI...

CITY           SKY/WX    TMP DP  RH WIND       PRES   REMARKS
ST LOUIS INTL  PTSUNNY  100  65  31 SW13      30.03F HX 103
SPIRIT OF STL  SUNNY     96  73  47 SW9       30.02F HX 105
ST CHARLES     SUNNY     97  68  38 W7        30.00F HX 102

$$
MOZ072>076-082>087-097>100-106>115-202000-
...SOUTH CENTRAL AND SOUTHEAST MISSOURI...

CITY           SKY/WX    TMP DP  RH WIND       PRES   REMARKS
CAPE GIRARDEAU CLOUDY    93  73  52 W6        30.05F HX 102
FARMINGTON     SUNNY     93  71  48 W8        30.08F HX 100
POPLAR BLUFF   CLOUDY    92  78  63 S10       30.05F HX 107
WEST PLAINS    SUNNY     93  68  43 SW8       30.11F HX  97

$$




USA.gov is the U.S. government's official web portal to all federal, state and local government web resources and services.